Location: Brasstown Bald
(34.8693°N, 83.8103°W)
Time: 02:33:44
(UTC-04:00)

Amateur Radio Satellites - All Passes

Search period start: 28 July 2017 02:03
Search period end: 29 July 2017 02:03
Location: Brasstown Bald, 34.8693°N, 83.8103°W

Satellite Date Start Highest point End Downlink Frequencies (MHz)
Time Altitude Azimuth
50 SAT 28 Jul 02:08:26 02:11:45 54° 260° (W) 02:15:06 437.505
Tancredo 1 28 Jul 02:10:29 02:12:56 23° 35° (NE) 02:15:24 437.200
JUGNU 28 Jul 02:19:10 02:22:30 15° 190° (S) 02:25:50 437.505
RS-15 28 Jul 02:22:04 02:33:54 69° 247° (WSW) 02:45:05 29.354- 29.394
Gurwin Techsat 1B 28 Jul 02:23:35 02:27:11 18° 94° (E) 02:30:45 435.225
ISS 28 Jul 02:33:30 02:35:44 17° 31° (NNE) 02:37:58 437.550
DX 1 28 Jul 02:43:05 02:47:06 37° 261° (W) 02:51:09 434.975-435.025
BEESAT 28 Jul 02:54:48 02:57:51 17° 66° (ENE) 03:00:54 436.000
DUCHIFAT 1 28 Jul 02:59:26 03:00:22 11° 295° (WNW) 03:01:19 145.980
ITUPSAT 1 28 Jul 03:09:24 03:13:11 24° 68° (ENE) 03:16:59 437.325
Oscar 19 28 Jul 03:09:55 03:15:07 88° 103° (ESE) 03:20:19 437.125/150
nSIGHT-1 28 Jul 03:12:06 03:15:07 36° 38° (NE) 03:18:08 .
BUGSAT 1 28 Jul 03:13:01 03:16:20 24° 290° (WNW) 03:19:36 437.445
UKube-1 28 Jul 03:19:46 03:23:05 22° 264° (W) 03:26:26 .
SRMSAT 28 Jul 03:25:38 03:29:36 18° 181° (S) 03:33:35 437.500
MOZHAYETS 4 28 Jul 03:26:10 03:29:53 25° 70° (ENE) 03:33:37
Tancredo 1 28 Jul 03:45:53 03:48:14 22° 230° (SW) 03:50:35 437.200
Gurwin Techsat 1B 28 Jul 04:02:13 04:07:18 46° 288° (WNW) 04:12:21 435.225
ISS 28 Jul 04:09:15 04:12:23 47° 226° (SW) 04:15:32 437.550
CUBESAT XI-V 28 Jul 04:10:59 04:13:21 14° 66° (ENE) 04:15:41 437.345
AO-7 28 Jul 04:23:02 04:30:36 37° 99° (E) 04:38:04 .
BEESAT 28 Jul 04:30:42 04:35:14 43° 261° (W) 04:39:46 436.000
RS-15 28 Jul 04:40:51 04:43:52 11° 265° (W) 04:46:53 29.354- 29.394
PCSat 28 Jul 04:42:22 04:47:31 47° 111° (ESE) 04:52:43 145.827
ITUPSAT 1 28 Jul 04:46:38 04:50:49 30° 263° (W) 04:55:01 437.325
nSIGHT-1 28 Jul 04:49:14 04:51:17 16° 232° (SW) 04:53:20 .
MOZHAYETS 4 28 Jul 05:03:07 05:06:55 26° 264° (W) 05:10:44
ITAMSAT 1 28 Jul 05:08:38 05:13:51 84° 102° (ESE) 05:19:01 435.822/435.867
SRMSAT 28 Jul 05:14:56 05:18:02 15° 191° (S) 05:21:09 437.500
KKS-1 28 Jul 05:19:15 05:23:28 43° 73° (ENE) 05:27:43 437.445
STARS 28 Jul 05:39:57 05:43:46 29° 71° (ENE) 05:47:35 437.465
CUBESAT XI-V 28 Jul 05:45:49 05:50:14 49° 260° (W) 05:54:42 437.345
DOVE 4 28 Jul 06:02:38 06:06:10 18° 92° (E) 06:09:35 437.250
SO-50 28 Jul 06:09:56 06:14:27 69° 117° (ESE) 06:18:56 436.795
AO-7 28 Jul 06:15:34 06:23:20 45° 295° (WNW) 06:31:03 .
PCSat 28 Jul 06:26:59 06:31:08 22° 307° (NW) 06:35:18 145.827
YUBILEINY 28 Jul 06:29:36 06:38:16 63° 81° (E) 06:46:51 435.215
LilacSat-2 28 Jul 06:41:56 06:43:53 14° 94° (E) 06:45:51 437.200
XW-2F 28 Jul 06:49:24 06:51:36 15° 94° (E) 06:53:48 145.980 - 146.000
ITAMSAT 1 28 Jul 06:51:41 06:52:32 10° 299° (WNW) 06:53:23 435.822/435.867
KKS-1 28 Jul 06:57:45 07:00:10 14° 267° (W) 07:02:37 437.445
STARS 28 Jul 07:16:42 07:20:03 21° 264° (W) 07:23:26 437.465
XW-2D 28 Jul 07:19:29 07:23:04 41° 99° (E) 07:26:39 145.860 - 145.880
CUTE-I 28 Jul 07:20:36 07:25:30 36° 98° (E) 07:30:22 437.470
XW-2B 28 Jul 07:29:33 07:33:15 55° 100° (E) 07:36:58 145.730 - 145.750
DOVE 4 28 Jul 07:39:07 07:44:01 43° 288° (WNW) 07:48:41 437.250
HO-68 28 Jul 07:40:46 07:45:38 19° 94° (E) 07:50:29 435.675
NUDT-PHONESAT 28 Jul 07:40:56 07:44:33 57° 100° (E) 07:48:10 437.300
XW-2C 28 Jul 07:47:02 07:50:49 81° 283° (WNW) 07:54:35 145.795 - 145.815
CUTE 1.7 + AOD 2 28 Jul 07:49:48 07:52:07 14° 93° (E) 07:54:25 437.475
SO-50 28 Jul 07:53:16 07:55:21 13° 314° (NW) 07:57:25 436.795
KAITUO 1B 28 Jul 08:00:26 08:04:09 72° 284° (WNW) 08:07:52 145.475/437.950
LilacSat-2 28 Jul 08:14:50 08:18:13 31° 287° (WNW) 08:21:36 437.200
STRAND 1 28 Jul 08:19:15 08:24:25 89° 256° (WSW) 08:29:36 437.568
XW-2F 28 Jul 08:22:29 08:25:44 28° 287° (WNW) 08:28:58 145.980 - 146.000
YUBILEINY 28 Jul 08:27:50 08:34:16 24° 278° (W) 08:40:41 435.215
AAUSAT CUBESAT 2 28 Jul 08:29:52 08:30:31 10° 92° (E) 08:31:11 437.432
UWE-3 28 Jul 08:55:03 08:58:19 22° 95° (E) 09:01:34 435.000/436.395/437.385
XW-2D 28 Jul 08:55:53 08:56:49 11° 293° (WNW) 08:57:46 145.860 - 145.880
CUTE-I 28 Jul 09:01:04 09:05:18 24° 293° (WNW) 09:09:31 437.470
ZACube-1 28 Jul 09:01:46 09:03:52 14° 93° (E) 09:05:59 437.345
Oscar 11 28 Jul 09:21:04 09:23:47 16° 94° (E) 09:26:30 .
CUTE 1.7 + AOD 2 28 Jul 09:24:06 09:28:03 38° 287° (WNW) 09:32:00 437.475
HO-68 28 Jul 09:26:43 09:33:48 66° 288° (WNW) 09:40:51 435.675
SEEDS 28 Jul 09:29:17 09:33:25 55° 285° (WNW) 09:37:33 437.485
UNISAT 6 28 Jul 09:29:26 09:30:08 10° 65° (ENE) 09:30:50 437.425
NO-84 28 Jul 09:37:19 09:39:15 17° 124° (ESE) 09:41:15 435.350 FM
XW-2A 28 Jul 09:37:21 09:40:23 33° 286° (WNW) 09:43:23 145.665 - 145.685
AO-73 28 Jul 09:38:21 09:42:08 34° 98° (E) 09:45:54 145.935
CUBEBUG 2 28 Jul 09:40:17 09:44:22 51° 285° (WNW) 09:48:22 437.445
FO-29 28 Jul 09:49:02 09:56:20 50° 70° (ENE) 10:03:51 435.910
PRISM 28 Jul 09:55:07 09:57:28 15° 67° (ENE) 09:59:50 437.425
AAUSAT CUBESAT 2 28 Jul 10:02:09 10:06:12 50° 285° (WNW) 10:10:15 437.432
TIGRISAT 28 Jul 10:09:06 10:13:00 27° 71° (ENE) 10:16:50 435.000
M-CUBED/EXP-1 PRIME 28 Jul 10:29:19 10:32:00 19° 63° (ENE) 10:34:50 437.505
UWE-3 28 Jul 10:31:23 10:34:40 23° 290° (WNW) 10:37:56 435.000/436.395/437.385
DELFI C3 28 Jul 10:32:18 10:35:37 25° 96° (E) 10:38:55 145.870
ZACube-1 28 Jul 10:36:28 10:40:16 37° 287° (WNW) 10:44:05 437.345
Oscar 11 28 Jul 10:56:04 10:59:59 35° 287° (WNW) 11:03:54 .
UNISAT 6 28 Jul 11:01:37 11:06:15 68° 259° (W) 11:10:48 437.425
NO-84 28 Jul 11:14:00 11:16:29 24° 320° (NW) 11:19:06 435.350 FM
AO-73 28 Jul 11:15:38 11:18:03 15° 292° (WNW) 11:20:29 145.935
HO-68 28 Jul 11:19:25 11:20:09 10° 306° (NW) 11:20:55 435.675
PRISM 28 Jul 11:28:38 11:32:24 36° 261° (W) 11:36:13 437.425
FO-29 28 Jul 11:34:52 11:41:26 31° 266° (W) 11:48:13 435.910
EO-88 28 Jul 11:39:30 11:43:07 67° 283° (WNW) 11:46:43 145.990 - 145.960
AO-85 28 Jul 11:43:25 11:46:34 22° 112° (ESE) 11:49:38 145.980
TIGRISAT 28 Jul 11:45:50 11:49:34 24° 264° (W) 11:53:17 435.000
BEESAT 3 28 Jul 11:56:29 12:00:03 33° 113° (ESE) 12:03:40 437.485
M-CUBED/EXP-1 PRIME 28 Jul 12:03:12 12:06:13 24° 260° (W) 12:09:28 437.505
DELFI C3 28 Jul 12:07:16 12:10:12 20° 290° (WNW) 12:13:07 145.870
DUCHIFAT 1 28 Jul 12:09:47 12:13:16 25° 71° (ENE) 12:16:44 145.980
POLYITAN 1 28 Jul 12:17:21 12:21:20 40° 73° (ENE) 12:25:19 437.675
BUGSAT 1 28 Jul 12:26:48 12:27:26 10° 65° (ENE) 12:28:03 437.445
QB50P2 28 Jul 12:30:22 12:34:36 65° 75° (ENE) 12:38:49 145.880/145.840
AIST 2D 28 Jul 12:34:22 12:37:39 40° 262° (W) 12:40:56 435.315
ESTCUBE 1 28 Jul 12:35:25 12:39:38 37° 99° (E) 12:43:49 437.505/2401.250
NANOSAT C BR1 28 Jul 12:38:37 12:42:49 66° 76° (ENE) 12:47:02 145.865
EO-79 28 Jul 12:41:00 12:45:16 79° 75° (ENE) 12:49:32 145.935-145.965
BEESAT 2 28 Jul 12:44:44 12:48:22 36° 114° (ESE) 12:52:05 435.950
LO-87 28 Jul 13:05:12 13:08:35 41° 286° (WNW) 13:11:58 145.935 - 145.965
VELOX 1 28 Jul 13:06:01 13:08:43 16° 94° (E) 13:11:24 145.980
AO-85 28 Jul 13:23:30 13:26:48 24° 306° (NW) 13:30:03 145.980
SPROUT 28 Jul 13:27:26 13:31:18 33° 98° (E) 13:35:08 437.525
PCSat 28 Jul 13:34:14 13:38:11 20° 52° (NE) 13:42:08 145.827
BEESAT 3 28 Jul 13:34:51 13:37:41 18° 309° (NW) 13:40:33 437.485
Gurwin Techsat 1B 28 Jul 13:41:25 13:45:25 22° 67° (ENE) 13:49:24 435.225
DUCHIFAT 1 28 Jul 13:45:32 13:48:50 22° 264° (W) 13:52:08 145.980
POLYITAN 1 28 Jul 13:55:01 13:57:14 14° 267° (W) 13:59:28 437.675
BUGSAT 1 28 Jul 13:58:05 14:02:15 58° 259° (W) 14:06:25 437.445
ESTCUBE 1 28 Jul 14:13:06 14:16:05 18° 292° (WNW) 14:19:05 437.505/2401.250
Oscar 19 28 Jul 14:23:20 14:28:27 90° 276° (W) 14:33:35 437.125/150
BEESAT 2 28 Jul 14:23:35 14:26:14 17° 309° (NW) 14:28:56 435.950
RS-15 28 Jul 14:30:11 14:39:29 27° 102° (ESE) 14:48:54 29.354- 29.394
O/OREOS (USA 219) 28 Jul 14:32:53 14:36:17 22° 102° (ESE) 14:39:43 437.305
DX 1 28 Jul 14:34:07 14:38:21 46° 100° (E) 14:42:32 434.975-435.025
VELOX 1 28 Jul 14:41:07 14:45:16 38° 288° (WNW) 14:49:23 145.980
SO-50 28 Jul 14:44:41 14:48:28 25° 52° (NE) 14:52:15 436.795
SPROUT 28 Jul 15:04:08 15:06:54 17° 292° (WNW) 15:09:39 437.525
50 SAT 28 Jul 15:06:11 15:09:18 33° 287° (WNW) 15:12:23 437.505
UKube-1 28 Jul 15:08:44 15:13:04 78° 102° (ESE) 15:17:23 .
PCSat 28 Jul 15:16:37 15:21:52 52° 249° (WSW) 15:27:05 145.827
AO-7 28 Jul 15:18:23 15:25:54 39° 63° (ENE) 15:33:25 .
Gurwin Techsat 1B 28 Jul 15:20:04 15:25:02 40° 261° (W) 15:30:02 435.225
O/OREOS (USA 219) 28 Jul 16:11:38 16:15:30 28° 296° (WNW) 16:19:22 437.305
DX 1 28 Jul 16:11:53 16:14:05 14° 294° (WNW) 16:16:16 434.975-435.025
ITAMSAT 1 28 Jul 16:23:04 16:28:17 89° 245° (WSW) 16:33:33 435.822/435.867
SO-50 28 Jul 16:24:54 16:28:53 30° 247° (WSW) 16:32:53 436.795
BEESAT 28 Jul 16:33:45 16:38:28 61° 102° (ESE) 16:43:08 436.000
RS-15 28 Jul 16:38:32 16:50:41 77° 300° (WNW) 17:03:08 29.354- 29.394
ITUPSAT 1 28 Jul 16:49:36 16:54:23 89° 105° (ESE) 16:59:08 437.325
MOZHAYETS 4 28 Jul 17:00:20 17:04:55 87° 277° (W) 17:09:29
DOVE 4 28 Jul 17:05:25 17:07:50 14° 64° (ENE) 17:10:18 437.250
AO-7 28 Jul 17:10:40 17:18:27 43° 259° (W) 17:26:19 .
KKS-1 28 Jul 17:16:28 17:17:06 10° 92° (E) 17:17:45 437.445
YUBILEINY 28 Jul 17:36:04 17:39:08 12° 77° (ENE) 17:42:12 435.215
CUBESAT XI-V 28 Jul 17:45:20 17:49:54 51° 100° (E) 17:54:28 437.345
NO-84 28 Jul 17:48:40 17:52:14 36° 43° (NE) 17:56:02 435.350 FM
XW-2D 28 Jul 17:59:05 18:00:49 13° 68° (ENE) 18:02:34 145.860 - 145.880
XW-2B 28 Jul 18:08:34 18:10:57 16° 70° (ENE) 18:13:20 145.730 - 145.750
HO-68 28 Jul 18:10:39 18:11:40 10° 54° (NE) 18:12:42 435.675
BEESAT 28 Jul 18:13:45 18:15:40 12° 296° (WNW) 18:17:36 436.000
NUDT-PHONESAT 28 Jul 18:17:59 18:20:12 16° 70° (ENE) 18:22:26 437.300
XW-2C 28 Jul 18:25:13 18:28:24 27° 72° (ENE) 18:31:36 145.795 - 145.815
Tancredo 1 28 Jul 18:36:23 18:39:01 31° 132° (SE) 18:41:40 437.200
KAITUO 1B 28 Jul 18:37:15 18:40:26 28° 73° (ENE) 18:43:38 145.475/437.950
CUTE-I 28 Jul 18:38:57 18:43:59 43° 71° (ENE) 18:49:04 437.470
DOVE 4 28 Jul 18:39:59 18:44:49 63° 260° (W) 18:49:58 437.250
KKS-1 28 Jul 18:49:35 18:53:58 58° 285° (WNW) 18:58:19 437.445
LilacSat-2 28 Jul 18:52:38 18:56:23 71° 77° (ENE) 19:00:08 437.200
RS-15 28 Jul 18:56:12 19:05:38 24° 326° (NW) 19:15:06 29.354- 29.394
XW-2F 28 Jul 18:59:11 19:02:53 77° 78° (ENE) 19:06:37 145.980 - 146.000
STARS 28 Jul 19:07:57 19:12:23 89° 120° (ESE) 19:16:44 437.465
ISS 28 Jul 19:10:46 19:13:27 24° 130° (SE) 19:16:07 437.550
CUBESAT XI-V 28 Jul 19:24:23 19:26:47 14° 294° (WNW) 19:29:11 437.345
YUBILEINY 28 Jul 19:25:35 19:34:25 80° 93° (E) 19:43:15 435.215
NO-84 28 Jul 19:26:27 19:29:36 22° 235° (SW) 19:32:53 435.350 FM
XW-2D 28 Jul 19:31:15 19:34:40 33° 262° (W) 19:38:05 145.860 - 145.880
XW-2B 28 Jul 19:41:44 19:44:54 26° 264° (W) 19:48:04 145.730 - 145.750
nSIGHT-1 28 Jul 19:48:29 19:51:42 74° 134° (SE) 19:54:55 .
UWE-3 28 Jul 19:49:37 19:52:00 14° 67° (ENE) 19:54:21 435.000/436.395/437.385
NUDT-PHONESAT 28 Jul 19:50:44 19:53:51 26° 263° (W) 19:56:58 437.300
HO-68 28 Jul 19:50:57 19:58:03 67° 71° (ENE) 20:05:09 435.675
XW-2C 28 Jul 20:00:22 20:02:35 15° 266° (W) 20:04:49 145.795 - 145.815
XW-2A 28 Jul 20:04:52 20:08:00 36° 74° (ENE) 20:11:08 145.665 - 145.685
Tancredo 1 28 Jul 20:12:19 20:14:26 18° 327° (NNW) 20:16:35 437.200
KAITUO 1B 28 Jul 20:12:29 20:14:27 14° 266° (W) 20:16:25 145.475/437.950
CUTE 1.7 + AOD 2 28 Jul 20:12:41 20:16:52 88° 259° (WSW) 20:21:05 437.475
SEEDS 28 Jul 20:17:06 20:21:10 61° 76° (ENE) 20:25:18 437.485
CUTE-I 28 Jul 20:20:18 20:24:10 20° 266° (W) 20:28:04 437.470
AO-73 28 Jul 20:31:02 20:34:08 19° 70° (ENE) 20:37:13 145.935
STRAND 1 28 Jul 20:33:23 20:38:11 40° 99° (E) 20:42:56 437.568
CUBEBUG 2 28 Jul 20:33:55 20:38:36 81° 77° (ENE) 20:43:12 437.445
ISS 28 Jul 20:47:01 20:49:50 26° 325° (NW) 20:52:38 437.550
AAUSAT CUBESAT 2 28 Jul 20:48:20 20:52:22 63° 76° (ENE) 20:56:28 437.432
RS-15 28 Jul 21:19:40 21:24:59 13° 3° (N) 21:30:15 29.354- 29.394
UWE-3 28 Jul 21:23:39 21:28:02 46° 261° (W) 21:32:21 435.000/436.395/437.385
YUBILEINY 28 Jul 21:26:22 21:32:08 19° 292° (WNW) 21:37:55 435.215
nSIGHT-1 28 Jul 21:26:45 21:28:26 13° 332° (NNW) 21:30:05 .
ZACube-1 28 Jul 21:27:56 21:32:22 79° 256° (WSW) 21:36:43 437.345
HO-68 28 Jul 21:41:20 21:46:12 19° 266° (W) 21:51:06 435.675
Oscar 11 28 Jul 21:46:42 21:50:59 72° 258° (WSW) 21:55:17 .
BEESAT 3 28 Jul 21:53:10 21:57:10 89° 243° (WSW) 22:01:05 437.485
AO-85 28 Jul 21:55:58 22:00:17 87° 245° (WSW) 22:04:56 145.980
AO-73 28 Jul 22:06:13 22:10:08 31° 263° (W) 22:13:59 145.935
STRAND 1 28 Jul 22:13:20 22:17:01 20° 294° (WNW) 22:20:42 437.568
EO-88 28 Jul 22:14:01 22:17:08 28° 73° (ENE) 22:20:16 145.990 - 145.960
JUGNU 28 Jul 22:27:22 22:30:44 15° 170° (S) 22:34:07 437.505
BEESAT 2 28 Jul 22:42:32 22:46:36 78° 241° (WSW) 22:50:34 435.950
DELFI C3 28 Jul 22:47:58 22:51:48 55° 260° (W) 22:55:42 145.870
FO-29 28 Jul 22:48:32 22:55:08 54° 99° (E) 23:00:56 435.910
UNISAT 6 28 Jul 22:57:04 23:00:50 30° 97° (E) 23:04:34 437.425
PRISM 28 Jul 23:12:53 23:16:44 36° 98° (E) 23:20:34 437.425
ESTCUBE 1 28 Jul 23:32:03 23:35:34 23° 69° (ENE) 23:39:05 437.505/2401.250
RS-15 28 Jul 23:33:47 23:43:47 28° 38° (NE) 23:53:20 29.354- 29.394
LO-87 28 Jul 23:37:29 23:40:53 39° 74° (ENE) 23:44:17 145.935 - 145.965
TIGRISAT 28 Jul 23:39:40 23:43:57 88° 290° (WNW) 23:48:12 435.000
M-CUBED/EXP-1 PRIME 28 Jul 23:43:46 23:47:49 29° 101° (E) 23:51:48 437.505
EO-88 28 Jul 23:48:54 23:50:49 14° 266° (W) 23:52:45 145.990 - 145.960
AIST 2D 29 Jul 00:03:15 00:05:32 16° 95° (E) 00:07:48 435.315
JUGNU 29 Jul 00:15:01 00:19:02 19° 181° (S) 00:23:04 437.505
SPROUT 29 Jul 00:18:11 00:21:03 18° 68° (ENE) 00:23:54 437.525
QB50P2 29 Jul 00:20:13 00:22:15 13° 93° (E) 00:24:16 145.880/145.840
NANOSAT C BR1 29 Jul 00:27:56 00:29:54 13° 93° (E) 00:31:52 145.865
EO-79 29 Jul 00:30:11 00:32:47 16° 94° (E) 00:35:23 145.935-145.965
UNISAT 6 29 Jul 00:34:19 00:37:18 19° 291° (WNW) 00:40:16 437.425
FO-29 29 Jul 00:34:35 00:39:33 22° 298° (WNW) 00:44:07 435.910
O/OREOS (USA 219) 29 Jul 00:45:27 00:49:11 25° 63° (ENE) 00:52:54 437.305
PRISM 29 Jul 00:49:13 00:51:40 15° 293° (WNW) 00:54:07 437.425
Tancredo 1 29 Jul 01:03:45 01:04:28 11° 27° (NNE) 01:05:10 437.200
ESTCUBE 1 29 Jul 01:08:26 01:12:12 27° 263° (W) 01:16:00 437.505/2401.250
M-CUBED/EXP-1 PRIME 29 Jul 01:18:11 01:22:02 26° 295° (WNW) 01:25:51 437.505
SRMSAT 29 Jul 01:24:38 01:28:10 16° 172° (S) 01:31:40 437.500
DX 1 29 Jul 01:26:33 01:30:11 26° 70° (ENE) 01:33:50 434.975-435.025
DUCHIFAT 1 29 Jul 01:31:34 01:35:45 73° 102° (ESE) 01:39:53 145.980
50 SAT 29 Jul 01:33:45 01:36:56 40° 75° (ENE) 01:40:10 437.505
VELOX 1 29 Jul 01:34:17 01:38:40 68° 258° (WSW) 01:43:07 145.980
AIST 2D 29 Jul 01:35:55 01:38:38 21° 288° (WNW) 01:41:22 435.315
POLYITAN 1 29 Jul 01:40:42 01:44:52 66° 284° (WNW) 01:49:00 437.675
ISS 29 Jul 01:42:14 01:43:11 11° 25° (NNE) 01:44:08 437.550
BUGSAT 1 29 Jul 01:43:39 01:46:57 24° 96° (E) 01:50:12 437.445
SPROUT 29 Jul 01:52:46 01:56:39 33° 262° (W) 02:00:33 437.525
QB50P2 29 Jul 01:54:15 01:58:11 40° 287° (WNW) 02:02:06 145.880/145.840
